Tracking 28799 objects as of 18-Apr-2024
HD Live streaming from Space Station
objects crossing your sky now

CZ-3C DEB

Track CZ-3C DEB now!


NORAD ID: 42478
Int'l Code: 2012-008AN
Perigee: 1,644.6 km
Apogee: 34,946.5 km
Inclination: 20.2 °
Period: 642.6 minutes
Semi major axis: 24666 km
RCS: Unknown
Launch date: February 24, 2012
Source: People's Republic of China (PRC)
Launch site: Xichang Space Center, China (XSC)

Note: This is SATELLITE DEBRIS
Your satellite tracking list
Your tracking list is empty




NASA's NSSDC Master Catalog

Two Line Element Set (TLE):
1 42478U 12008AN  24104.52312255 -.00000177  00000-0  00000+0 0  9997
2 42478  20.2115 130.4527 6750415  64.9205 348.9223  2.24099534 71630
Source of the keplerian elements: AFSPC